TimePDT,TemperatureF,Dew PointF,Humidity,Sea Level PressureIn,VisibilityMPH,Wind Direction,Wind SpeedMPH,Gust SpeedMPH,PrecipitationIn,Events,Conditions,WindDirDegrees,DateUTC
12:53 AM,45.0,39.9,82,30.18,10.0,SE,10.4,-,N/A,,Clear,130,2013-03-30 07:53:00
1:53 AM,45.0,39.9,82,30.19,10.0,SSE,10.4,-,N/A,,Clear,160,2013-03-30 08:53:00
2:53 AM,42.1,39.0,89,30.20,10.0,East,9.2,-,N/A,,Clear,100,2013-03-30 09:53:00
3:53 AM,41.0,37.9,89,30.20,10.0,East,5.8,-,N/A,,Clear,100,2013-03-30 10:53:00
4:53 AM,39.9,37.0,89,30.20,10.0,East,9.2,-,N/A,,Clear,100,2013-03-30 11:53:00
5:53 AM,39.9,37.0,89,30.21,10.0,East,8.1,-,N/A,,Clear,90,2013-03-30 12:53:00
6:53 AM,37.9,35.1,89,30.22,10.0,East,8.1,-,N/A,,Clear,90,2013-03-30 13:53:00
7:53 AM,46.0,39.9,79,30.22,10.0,East,4.6,-,N/A,,Clear,100,2013-03-30 14:53:00
8:53 AM,51.1,41.0,68,30.21,10.0,East,3.5,-,N/A,,Clear,100,2013-03-30 15:53:00
9:53 AM,57.0,44.1,62,30.21,10.0,Calm,Calm,-,N/A,,Clear,0,2013-03-30 16:53:00
10:53 AM,63.0,42.1,46,30.20,10.0,Calm,Calm,-,N/A,,Clear,0,2013-03-30 17:53:00
11:53 AM,66.0,33.1,29,30.19,10.0,NW,5.8,-,N/A,,Clear,320,2013-03-30 18:53:00
12:53 PM,66.9,37.9,34,30.18,10.0,WNW,8.1,-,0.00,Rain,Light Rain,300,2013-03-30 19:53:00
1:53 PM,68.0,35.1,30,30.17,10.0,NNE,9.2,16.1,0.00,Rain,Light Rain,20,2013-03-30 20:53:00
2:53 PM,68.0,34.0,28,30.14,10.0,Calm,Calm,-,0.00,,Clear,0,2013-03-30 21:53:00
3:53 PM,70.0,35.1,28,30.12,10.0,NNE,8.1,-,0.00,,Clear,30,2013-03-30 22:53:00
4:53 PM,68.0,35.1,30,30.10,10.0,NNE,8.1,-,0.00,Rain,Light Rain,30,2013-03-30 23:53:00
5:53 PM,66.9,34.0,30,30.09,10.0,NNE,8.1,-,0.00,,Clear,20,2013-03-31 00:53:00
6:53 PM,62.1,37.0,39,30.09,10.0,NNE,8.1,-,N/A,,Clear,30,2013-03-31 01:53:00
7:53 PM,55.0,37.9,53,30.08,10.0,NE,8.1,-,N/A,,Clear,40,2013-03-31 02:53:00
8:53 PM,51.1,37.0,59,30.08,10.0,Variable,3.5,-,N/A,,Clear,0,2013-03-31 03:53:00
9:53 PM,48.9,37.9,66,30.08,10.0,ESE,5.8,-,N/A,,Clear,110,2013-03-31 04:53:00
10:53 PM,46.9,39.9,77,30.07,10.0,ESE,6.9,-,N/A,,Clear,110,2013-03-31 05:53:00
11:53 PM,43.0,37.9,82,30.06,10.0,East,8.1,-,N/A,,Clear,100,2013-03-31 06:53:00